Flag for Angola Weather past 2 weeks in Huambo, Angola

Now
75 °F

Partly sunny.


Feels Like: 77 °F
Forecast: 53 / 89 °F
Wind: 7 mph from West

Location: Luanda Airport

Current Time: Aug 20, 2014 at 4:37:25 PM

Latest Report: Aug 20, 2014 at 3:00 PM


Visibility: N/A

Pressure: 29.92 "Hg

Humidity: 69%

Dew point: 64 °F

Location of HuamboLocation

Historic Weather in Huambo — Graph

°F

Huambo temperature yesterday

Maximum temperature yesterday: 77 °F (at 2:00 PM)
Minimum temperature yesterday: 66 °F (at 3:00 AM)
Average temperature yesterday: 70 °F

Past Weeks' High & Low Weather Summary

 TemperatureHumidityPressure
High81 °F (Aug 13, 2:00 PM)100% (Aug 6, 9:00 PM)30.07 "Hg (Aug 6, 9:00 PM)
Low64 °F (Aug 7, 5:00 AM)51% (Aug 17, 1:00 PM)29.89 "Hg (Aug 15, 3:00 PM)
Average70 °F79%29.99 "Hg
* Reported Aug 5 3:00 PM — Aug 20 3:00 PM, Huambo, Weather by CustomWeather, © 2014

Note: Actual official high and low records may vary slightly from our data, if they occured in-between our weather recording intervals... More about our weather records

Advertising

Huambo weather history for previous 24 hours

 ConditionsComfort  
Time TempWeatherWind HumidityBarometerVisibility
3:00 PM
Aug 20
75 °FPartly sunny.7 mph69%29.92 "HgN/A
2:00 PM75 °FPartly sunny.5 mph69%29.92 "HgN/A
1:00 PM73 °FBroken clouds.7 mph78%30.04 "HgN/A
12:00 PM73 °FBroken clouds.7 mph78%30.04 "HgN/A
11:00 AM73 °FBroken clouds.7 mph78%30.04 "HgN/A
10:00 AM73 °FBroken clouds.5 mph74%30.07 "HgN/A
9:00 AM70 °FBroken clouds.5 mph83%30.07 "HgN/A
8:00 AM70 °FBroken clouds.2 mph83%30.07 "HgN/A
7:00 AM68 °FMostly cloudy.2 mph88%30.04 "HgN/A
6:00 AM68 °FPassing clouds.No wind88%30.04 "HgN/A
5:00 AM68 °FPartly cloudy.6 mph88%30.01 "HgN/A
4:00 AM68 °FPartly cloudy.6 mph94%30.01 "Hg6 mi
3:00 AM68 °FPartly cloudy.3 mph94%30.01 "Hg6 mi
2:00 AM70 °FPartly cloudy.5 mph88%30.01 "Hg6 mi
1:00 AM70 °FPassing clouds.5 mph88%30.04 "HgN/A
12:00 AM68 °FPassing clouds.3 mph94%30.04 "HgN/A
10:00 PM
Aug 19
68 °FPassing clouds.5 mph88%30.04 "HgN/A
9:00 PM68 °FClear.8 mph88%30.01 "Hg10 mi
8:00 PM68 °FPassing clouds.7 mph88%29.98 "HgN/A
7:00 PM70 °FClear.7 mph83%29.98 "Hg10 mi
6:00 PM70 °FSunny.7 mph83%29.95 "Hg10 mi
5:00 PM72 °FSunny.8 mph78%29.95 "Hg10 mi
4:00 PM73 °FSunny.9 mph74%29.92 "Hg10 mi
Weather by CustomWeather, © 2014

See weather overviewHow to use our weather pages